FW9064 Weather Reports


Display with metric or nautical units.
time (UTC)temp
F
wind
direction
speed
MPH
gust
MPH
rain 1hr
in
rain 24hr
in
rain mn
in
humidity
%
barometer
mb
20260506134452 71 173 1.0 2.0 0.00 0.00 0.00 88 1014.9
20260506133949 71 113 0.0 0.0 0.00 0.00 0.00 89 1015.2
20260506133446 71 129 2.0 3.0 0.00 0.00 0.00 88 1015.1
20260506132943 71 123 1.0 1.0 0.00 0.00 0.00 89 1015.3
20260506132440 70 80 1.0 1.0 0.00 0.00 0.00 89 1014.9
20260506131937 70 236 3.0 3.0 0.00 0.00 0.00 90 1015.1
20260506131434 69 107 0.0 1.0 0.00 0.00 0.00 91 1014.8
20260506130931 69 120 1.0 1.0 0.00 0.00 0.00 91 1015.1
20260506130427 69 131 1.0 2.0 0.00 0.00 0.00 92 1015.0
20260506125926 68 127 2.0 2.0 0.00 0.00 0.00 92 1015.1
20260506125424 68 160 1.0 1.0 0.00 0.00 0.00 92 1015.0
20260506124922 68 105 1.0 2.0 0.00 0.00 0.00 92 1014.9
20260506124419 68 127 1.0 1.0 0.00 0.00 0.00 92 1014.8
20260506123916 68 115 0.0 0.0 0.00 0.00 0.00 93 1015.2
20260506123414 68 109 0.0 0.0 0.00 0.00 0.00 93 1015.1
20260506122911 68 157 0.0 0.0 0.00 0.00 0.00 93 1015.0
20260506122408 68 111 0.0 1.0 0.00 0.00 0.00 93 1014.7
20260506121907 68 109 1.0 2.0 0.00 0.00 0.00 92 1014.9
20260506121403 68 122 1.0 1.0 0.00 0.00 0.00 92 1014.3
20260506120900 68 113 0.0 1.0 0.00 0.00 0.00 92 1014.3
20260506120357 68 110 0.0 0.0 0.00 0.00 0.00 92 1014.4
20260506115855 68 116 1.0 2.0 0.00 0.00 0.00 92 1014.2
20260506115353 68 111 0.0 0.0 0.00 0.00 0.00 92 1014.1
20260506114851 68 149 1.0 1.0 0.00 0.00 0.00 92 1014.1
20260506114348 68 101 1.0 1.0 0.00 0.00 0.00 92 1014.1
20260506113847 68 170 2.0 3.0 0.00 0.00 0.00 92 1014.1
20260506113344 68 116 2.0 3.0 0.00 0.00 0.00 92 1013.6
20260506112840 67 117 0.0 0.0 0.00 0.00 0.00 92 1013.5
20260506112338 67 116 0.0 0.0 0.00 0.00 0.00 92 1013.7
20260506111835 67 86 1.0 1.0 0.00 0.00 0.00 92 1013.8
20260506111333 67 107 0.0 0.0 0.00 0.00 0.00 93 1013.5
20260506110830 66 212 3.0 3.0 0.00 0.00 0.00 93 1013.7
20260506110327 66 112 0.0 0.0 0.00 0.00 0.00 93 1013.4
20260506105824 66 111 0.0 0.0 0.00 0.00 0.00 93 1013.5
20260506105320 66 110 0.0 0.0 0.00 0.00 0.00 93 1013.3
20260506104818 66 112 0.0 0.0 0.00 0.00 0.00 93 1013.3
20260506104316 66 111 0.0 0.0 0.00 0.00 0.00 92 1013.5
20260506103813 66 118 0.0 0.0 0.00 0.00 0.00 92 1013.2
20260506103310 66 109 0.0 0.0 0.00 0.00 0.00 92 1013.1
20260506102808 66 114 0.0 0.0 0.00 0.00 0.00 92 1013.0
20260506102306 66 111 0.0 0.0 0.00 0.00 0.00 92 1013.2
20260506101803 66 115 0.0 0.0 0.00 0.00 0.00 92 1013.2
20260506101258 66 110 0.0 0.0 0.00 0.00 0.00 92 1013.0
20260506100757 66 111 0.0 0.0 0.00 0.00 0.00 91 1012.8
20260506100254 66 112 0.0 0.0 0.00 0.00 0.00 91 1012.9
20260506095753 66 112 0.0 0.0 0.00 0.00 0.00 91 1012.9
20260506095249 66 114 0.0 0.0 0.00 0.00 0.00 91 1012.8
20260506094746 67 110 0.0 0.0 0.00 0.00 0.00 91 1012.7
20260506094244 67 110 0.0 0.0 0.00 0.00 0.00 90 1012.6
20260506093743 67 112 0.0 0.0 0.00 0.00 0.00 90 1012.5
20260506093239 67 110 0.0 0.0 0.00 0.00 0.00 90 1012.3
20260506092737 66 105 0.0 0.0 0.00 0.00 0.00 90 1012.3
20260506092235 66 112 0.0 0.0 0.00 0.00 0.00 90 1012.2
20260506091732 66 113 0.0 0.0 0.00 0.00 0.00 90 1012.2
20260506091229 66 112 0.0 0.0 0.00 0.00 0.00 90 1012.3
20260506090727 66 111 0.0 0.0 0.00 0.00 0.00 89 1012.3
20260506090224 67 111 0.0 0.0 0.00 0.00 0.00 89 1012.0
20260506085721 67 111 0.0 0.0 0.00 0.00 0.00 89 1012.1
20260506085217 67 111 0.0 0.0 0.00 0.00 0.00 89 1012.1
20260506084714 67 114 0.0 0.0 0.00 0.00 0.00 89 1012.0
20260506084210 67 111 0.0 0.0 0.00 0.00 0.00 88 1012.3
20260506083707 67 111 0.0 1.0 0.00 0.00 0.00 88 1011.9
20260506083205 67 114 0.0 0.0 0.00 0.00 0.00 88 1012.2
20260506082702 67 112 0.0 0.0 0.00 0.00 0.00 88 1012.4
20260506082202 67 110 0.0 0.0 0.00 0.00 0.00 88 1012.0
20260506081700 67 110 0.0 0.0 0.00 0.00 0.00 88 1012.4
20260506081158 67 139 1.0 1.0 0.00 0.00 0.00 87 1012.1
20260506080655 67 111 0.0 0.0 0.00 0.00 0.00 87 1012.1
20260506080152 67 113 0.0 0.0 0.00 0.00 0.00 87 1012.3
20260506073136 68 99 1.0 1.0 0.00 0.00 0.00 84 1012.2
20260506072632 68 115 2.0 3.0 0.00 0.00 0.00 84 1012.2
20260506072131 68 113 0.0 0.0 0.00 0.00 0.00 84 1012.5
20260506071628 68 149 0.0 1.0 0.00 0.00 0.00 83 1012.3
20260506071125 68 125 3.0 3.0 0.00 0.00 0.00 83 1012.4
20260506070622 68 113 0.0 1.0 0.00 0.00 0.00 83 1012.4
20260506070119 68 120 0.0 0.0 0.00 0.00 0.00 83 1012.2
20260506062056 69 129 1.0 1.0 0.00 0.00 0.00 81 1012.8
20260506061552 68 107 0.0 0.0 0.00 0.00 0.00 81 1012.8
20260506061050 69 108 0.0 0.0 0.00 0.00 0.00 81 1013.0
20260506060548 69 143 1.0 1.0 0.00 0.00 0.00 81 1012.9
20260506051017 68 115 0.0 0.0 0.00 0.00 0.00 81 1012.8
20260506050515 68 115 1.0 1.0 0.00 0.00 0.00 81 1013.1
20260506045005 68 111 0.0 0.0 0.00 0.00 0.00 83 1012.7
20260506044503 68 139 1.0 1.0 0.00 0.00 0.00 83 1012.7
20260506044000 67 115 1.0 2.0 0.00 0.00 0.00 83 1012.7
20260506043457 66 108 0.0 0.0 0.00 0.00 0.00 86 1012.5
20260506042955 65 119 0.0 0.0 0.00 0.00 0.00 89 1012.7
20260506042454 65 112 0.0 0.0 0.00 0.00 0.00 90 1012.6
20260506041952 64 125 1.0 1.0 0.00 0.00 0.00 91 1012.9
20260506041450 64 111 0.0 0.0 0.00 0.00 0.00 92 1012.8
20260506040947 64 108 0.0 0.0 0.00 0.00 0.00 92 1012.9
20260506040444 63 110 0.0 0.0 0.00 0.00 0.00 93 1012.5
20260506035940 63 114 0.0 0.0 0.00 0.00 0.00 93 1013.1
20260506035438 63 110 0.0 0.0 0.00 0.00 0.00 93 1012.9
20260506034934 63 112 0.0 0.0 0.00 0.00 0.00 93 1012.8
20260506034431 63 111 0.0 0.0 0.00 0.00 0.00 93 1012.8
20260506033928 63 112 0.0 0.0 0.00 0.00 0.00 92 1012.8
20260506033426 64 110 0.0 0.0 0.00 0.00 0.00 92 1013.1
20260506032922 64 111 0.0 0.0 0.00 0.00 0.00 92 1013.2
20260506032419 64 118 0.0 0.0 0.00 0.00 0.00 91 1012.8
20260506031916 64 111 0.0 0.0 0.00 0.00 0.00 91 1012.8
20260506031413 64 110 0.0 0.0 0.00 0.00 0.00 91 1012.7
20260506030911 64 112 0.0 0.0 0.00 0.00 0.00 91 1012.6
20260506030409 65 111 0.0 0.0 0.00 0.00 0.00 90 1012.5
20260506025905 65 111 0.0 0.0 0.00 0.00 0.00 90 1012.5
20260506025403 65 110 0.0 0.0 0.00 0.00 0.00 89 1012.4
20260506024859 66 110 0.0 0.0 0.00 0.00 0.00 89 1012.6
20260506024356 66 111 0.0 0.0 0.00 0.00 0.00 88 1012.6
20260506023852 66 111 0.0 0.0 0.00 0.00 0.00 87 1012.5
20260506023349 66 111 0.0 0.0 0.00 0.00 0.00 87 1012.7
20260506022846 67 111 0.0 0.0 0.00 0.00 0.00 87 1012.4
20260506022343 67 111 0.0 0.0 0.00 0.00 0.00 86 1012.5
20260506021841 67 111 0.0 0.0 0.00 0.00 0.00 86 1012.1
20260506021338 67 111 0.0 0.0 0.00 0.00 0.00 86 1012.2
20260506020834 67 111 0.0 0.0 0.00 0.00 0.00 86 1012.5
20260506020333 68 111 0.0 0.0 0.00 0.00 0.00 86 1012.4
20260506015830 68 111 0.0 0.0 0.00 0.00 0.00 85 1012.4
20260506015327 68 111 0.0 0.0 0.00 0.00 0.00 85 1012.1
20260506014824 69 111 0.0 0.0 0.00 0.00 0.00 84 1012.1
20260506014321 69 112 0.0 0.0 0.00 0.00 0.00 83 1012.5
20260506013817 69 114 0.0 0.0 0.00 0.00 0.00 83 1012.2
20260506013315 69 112 0.0 0.0 0.00 0.00 0.00 83 1012.2
20260506012811 69 113 0.0 0.0 0.00 0.00 0.00 82 1012.5
20260506012308 69 111 0.0 0.0 0.00 0.00 0.00 82 1012.5
20260506011805 69 112 0.0 0.0 0.00 0.00 0.00 82 1012.4
20260506011302 69 112 0.0 0.0 0.00 0.00 0.00 82 1012.4
20260506010800 69 111 0.0 0.0 0.00 0.00 0.00 82 1012.3
20260506010257 70 111 0.0 0.0 0.00 0.00 0.00 81 1012.1
20260506005754 70 114 0.0 0.0 0.00 0.00 0.00 80 1012.2
20260506005251 70 112 0.0 0.0 0.00 0.00 0.00 78 1012.2
20260506004747 71 112 0.0 0.0 0.00 0.00 0.00 78 1012.2
20260506004245 71 112 0.0 0.0 0.00 0.00 0.00 77 1012.1
20260506003740 71 112 0.0 0.0 0.00 0.00 0.00 76 1011.9
20260506003237 72 112 0.0 0.0 0.00 0.00 0.00 76 1012.1
20260506002733 72 111 0.0 0.0 0.00 0.00 0.00 75 1012.0
20260506002229 72 112 0.0 0.0 0.00 0.00 0.00 75 1012.1
20260506001725 73 112 0.0 0.0 0.00 0.00 0.00 74 1012.1
20260506001223 73 112 0.0 0.0 0.00 0.00 0.00 74 1012.2
20260506000720 73 111 0.0 0.0 0.00 0.00 0.00 72 1012.3
20260506000219 73 112 0.0 0.0 0.00 0.00 0.00 72 1012.2
20260505235714 74 111 0.0 0.0 0.00 0.00 0.00 71 1012.3
20260505235212 74 112 0.0 0.0 0.00 0.00 0.00 70 1012.3
20260505234709 74 112 0.0 0.0 0.00 0.00 0.00 70 1012.2
20260505234206 74 112 0.0 0.0 0.00 0.00 0.00 69 1012.3
20260505233702 74 112 0.0 0.0 0.00 0.00 0.00 68 1012.1
20260505233200 75 112 0.0 0.0 0.00 0.00 0.00 68 1012.2
20260505232658 75 121 0.0 0.0 0.00 0.00 0.00 66 1012.6
20260505232155 75 110 0.0 0.0 0.00 0.00 0.00 66 1012.6
20260505231651 76 113 0.0 0.0 0.00 0.00 0.00 66 1012.7
20260505231151 76 112 0.0 0.0 0.00 0.00 0.00 63 1012.6
20260505230648 76 113 0.0 0.0 0.00 0.00 0.00 63 1012.4
20260505230145 76 114 0.0 0.0 0.00 0.00 0.00 63 1012.9
20260505225640 76 113 0.0 0.0 0.00 0.00 0.00 63 1012.5
20260505225137 76 113 0.0 0.0 0.00 0.00 0.00 63 1012.8
20260505224633 76 113 0.0 0.0 0.00 0.00 0.00 62 1012.8
20260505224132 76 118 0.0 0.0 0.00 0.00 0.00 62 1012.8
20260505223629 76 113 0.0 0.0 0.00 0.00 0.00 61 1012.8
20260505223125 77 113 0.0 0.0 0.00 0.00 0.00 60 1012.7
20260505222621 77 113 0.0 0.0 0.00 0.00 0.00 59 1012.5
20260505222117 77 139 0.0 1.0 0.00 0.00 0.00 59 1012.6
20260505221614 77 113 0.0 0.0 0.00 0.00 0.00 59 1012.5
20260505221111 77 152 0.0 0.0 0.00 0.00 0.00 59 1012.7
20260505220608 78 122 0.0 0.0 0.00 0.00 0.00 59 1012.6
20260505220106 77 112 0.0 0.0 0.00 0.00 0.00 59 1012.7
20260505215604 77 109 0.0 0.0 0.00 0.00 0.00 58 1012.9
20260505215101 77 114 0.0 0.0 0.00 0.00 0.00 58 1013.0
20260505214559 77 156 0.0 1.0 0.00 0.00 0.00 58 1012.7
20260505214056 77 116 0.0 1.0 0.00 0.00 0.00 59 1013.0
20260505213554 77 119 0.0 0.0 0.00 0.00 0.00 58 1012.6
20260505213050 78 117 0.0 1.0 0.00 0.00 0.00 59 1012.7
20260505212546 78 107 0.0 1.0 0.00 0.00 0.00 60 1012.7
20260505212044 78 134 1.0 1.0 0.00 0.00 0.00 58 1012.7
20260505211541 78 114 1.0 1.0 0.00 0.00 0.00 57 1012.6
20260505211037 78 120 1.0 1.0 0.00 0.00 0.00 58 1012.5
20260505210534 78 202 3.0 5.0 0.00 0.00 0.00 57 1012.4
20260505210031 78 142 2.0 2.0 0.00 0.00 0.00 56 1012.7
20260505205529 78 113 1.0 2.0 0.00 0.00 0.00 57 1012.6
20260505205026 78 112 1.0 1.0 0.00 0.00 0.00 57 1012.5
20260505204518 78 173 1.0 1.0 0.00 0.00 0.00 56 1012.9
20260505204015 79 121 1.0 1.0 0.00 0.00 0.00 56 1012.7
20260505203511 79 94 2.0 3.0 0.00 0.00 0.00 54 1012.9
20260505203008 78 133 2.0 3.0 0.00 0.00 0.00 56 1012.8
20260505202504 78 94 0.0 0.0 0.00 0.00 0.00 58 1012.8
20260505202000 78 100 1.0 1.0 0.00 0.00 0.00 56 1013.2
20260505201458 77 203 2.0 2.0 0.00 0.00 0.00 58 1013.2
20260505200955 77 130 0.0 1.0 0.00 0.00 0.00 57 1013.4
20260505200453 78 106 2.0 2.0 0.00 0.00 0.00 57 1013.6
20260505195948 77 286 2.0 3.0 0.00 0.00 0.00 57 1013.4
20260505195446 78 63 3.0 3.0 0.00 0.00 0.00 56 1013.7
20260505194943 78 133 0.0 0.0 0.00 0.00 0.00 58 1013.5
20260505194440 78 116 2.0 3.0 0.00 0.00 0.00 56 1013.9
20260505193940 79 195 2.0 3.0 0.00 0.00 0.00 55 1013.7
20260505193438 78 95 1.0 1.0 0.00 0.00 0.00 54 1013.6
20260505192936 78 118 1.0 2.0 0.00 0.00 0.00 56 1013.6
20260505192434 79 82 0.0 1.0 0.00 0.00 0.00 56 1013.6
20260505191931 78 117 1.0 1.0 0.00 0.00 0.00 56 1013.9
20260505191430 79 104 1.0 3.0 0.00 0.00 0.00 54 1013.8
20260505190926 79 181 4.0 6.0 0.00 0.00 0.00 54 1013.9
20260505190421 78 118 1.0 1.0 0.00 0.00 0.00 56 1014.0
20260505185917 79 120 1.0 1.0 0.00 0.00 0.00 55 1014.2
20260505185414 78 130 1.0 1.0 0.00 0.00 0.00 57 1014.3
20260505184910 78 108 0.0 0.0 0.00 0.00 0.00 55 1014.1
20260505184407 78 116 1.0 2.0 0.00 0.00 0.00 56 1014.3
20260505183904 78 127 3.0 3.0 0.00 0.00 0.00 55 1014.5
20260505183401 78 112 0.0 1.0 0.00 0.00 0.00 58 1014.5
20260505182858 76 126 1.0 1.0 0.00 0.00 0.00 57 1014.5
20260505182355 76 88 1.0 1.0 0.00 0.00 0.00 58 1014.5
20260505181851 76 116 2.0 3.0 0.00 0.00 0.00 58 1014.6
20260505181348 76 114 1.0 2.0 0.00 0.00 0.00 55 1014.7
20260505180845 76 115 2.0 2.0 0.00 0.00 0.00 55 1014.7
20260505180341 76 176 2.0 2.0 0.00 0.00 0.00 56 1014.6
20260505175838 76 187 2.0 2.0 0.00 0.00 0.00 58 1014.7
20260505175334 75 118 1.0 1.0 0.00 0.00 0.00 58 1014.9
20260505174831 76 125 0.0 1.0 0.00 0.00 0.00 59 1015.0
20260505174329 77 157 1.0 1.0 0.00 0.00 0.00 57 1015.0
20260505173824 77 71 2.0 3.0 0.00 0.00 0.00 56 1015.0
20260505173321 77 110 1.0 3.0 0.00 0.00 0.00 59 1015.1
20260505172818 76 118 1.0 1.0 0.00 0.00 0.00 58 1015.2
20260505172315 77 111 1.0 1.0 0.00 0.00 0.00 56 1015.1
20260505171810 77 142 3.0 3.0 0.00 0.00 0.00 56 1015.3
20260505171307 77 127 2.0 2.0 0.00 0.00 0.00 55 1015.3
20260505170803 77 120 0.0 0.0 0.00 0.00 0.00 55 1015.4
20260505170300 77 121 1.0 1.0 0.00 0.00 0.00 55 1015.8
20260505165755 76 106 0.0 0.0 0.00 0.00 0.00 55 1015.3
20260505165252 77 158 0.0 0.0 0.00 0.00 0.00 56 1015.4
20260505164747 77 223 2.0 3.0 0.00 0.00 0.00 54 1015.4
20260505164245 76 107 0.0 0.0 0.00 0.00 0.00 53 1015.4
20260505163743 76 156 1.0 2.0 0.00 0.00 0.00 56 1015.2
20260505163241 76 122 0.0 0.0 0.00 0.00 0.00 55 1015.2
20260505162738 75 125 5.0 6.0 0.00 0.00 0.00 54 1015.4
20260505162235 75 58 1.0 1.0 0.00 0.00 0.00 56 1015.6
20260505161732 76 152 2.0 3.0 0.00 0.00 0.00 54 1015.5
20260505161230 75 110 1.0 2.0 0.00 0.00 0.00 55 1015.5
20260505160727 75 82 1.0 1.0 0.00 0.00 0.00 55 1015.1
20260505160225 75 114 0.0 0.0 0.00 0.00 0.00 55 1015.5
20260505153204 72 163 1.0 2.0 0.00 0.00 0.00 63 1015.6
20260505152700 72 130 2.0 2.0 0.00 0.00 0.00 61 1016.0
20260505152156 73 124 1.0 2.0 0.00 0.00 0.00 61 1016.1
20260505151651 72 98 1.0 1.0 0.00 0.00 0.00 62 1015.8
20260505151149 72 98 2.0 2.0 0.00 0.00 0.00 63 1015.9
20260505150645 72 106 0.0 0.0 0.00 0.00 0.00 65 1015.9
20260505150143 71 114 2.0 2.0 0.00 0.00 0.00 65 1016.0
20260505140611 68 121 1.0 1.0 0.00 0.00 0.00 70 1015.9
20260505140108 67 125 0.0 0.0 0.00 0.00 0.00 71 1015.6